Regional Weather Roundup
Issued by NWS Binghamton, NY

Home | Current Version | Previous Version | Text Only | Print | Product List | Glossary On
Versions: 1 2 3 4 5 6 7 8 9 10 11 12 13 14 15 16 17 18 19 20 21 22 23 24 25 26 27 28 29 30 31 32 33 34 35 36 37 38 39 40 41 42 43 44 45 46 47 48 49 50
000
ASUS41 KBGM 250110
RWRBGM

REGIONAL WEATHER ROUNDUP
NATIONAL WEATHER SERVICE BINGHAMTON NY
900 PM EDT SUN SEP 24 2017

Note: "fair" indicates few or no clouds below 12,000 feet with no
significant weather and/or obstructions to visibility.

* = Station(s) that does not report precipitation, such as rain,
snow, etc, also no thunder or fog.

NYZ009-015>018-022>025-036-037-044>046-055>057-062-250200
...Central New York...

CITY           SKY/WX    TMP DP  RH WIND       PRES   REMARKS
Binghamton     CLEAR     74  65  73 N9        30.15R
Cortland       FAIR      68  66  94 CALM      30.15R
Dansville      CLEAR     72  66  81 SE3       30.13R
Elmira         CLEAR     71  68  90 CALM      30.12R
Seneca Falls   CLEAR     73  66  78 CALM      30.10S
Ithaca         CLEAR     71  67  87 N6        30.14R
Hamilton       CLEAR     63  61  94 CALM      30.14R
Hornell        CLEAR     66  64  94 CALM      30.19R
Monticello     CLEAR     74  66  76 CALM      30.13R
Penn Yan       CLEAR     70  65  84 CALM      30.13R
Rome           CLEAR     71  68  90 CALM      30.10R
Sidney         CLEAR     68  68 100 CALM      30.12R
Syracuse       CLEAR     73  67  81 CALM      30.08S
$$

PAZ038>040-043-044-047-048-072-250200
...Northeast Pennsylvania...

CITY           SKY/WX    TMP DP  RH WIND       PRES   REMARKS
Hazleton       CLEAR     66  55  68 CALM      30.17R
Scranton       CLEAR     76  66  71 E6        30.10R
$$
&&
KEY
WCI = Wind Chill Index
VSB = Visibility
HX  = Heat Index
$$



USA.gov is the U.S. government's official web portal to all federal, state and local government web resources and services.